Home   Weather   Molde   Past weeks

Flag for Norway Past Weather in Molde, Norway — Yesterday and Last 2 Weeks

Now
43 °F

Sunny.


Feels Like: 35 °F
Forecast: 47 / 53 °F
Wind: 17 mph from East

Location: Aro

Current Time: Oct 20, 2017 at 11:03:08 am

Latest Report: Oct 20, 2017 at 10:20 am


Visibility: 10 mi

Pressure: 29.86 "Hg

Humidity: 71%

Dew Point: 34 °F

Location of MoldeLocation

Past Weather in Molde — Graph

°F

Molde Temperature Yesterday

Maximum temperature yesterday: 48 °F (at 3:50 pm)
Minimum temperature yesterday: 37 °F (at 7:50 am)
Average temperature yesterday: 41 °F

High & Low Weather Summary for the Past Weeks

 TemperatureHumidityPressure
High61 °F (Oct 16, 1:50 am)100% (Oct 9, 6:20 am)30.09 "Hg (Oct 9, 6:20 am)
Low36 °F (Oct 10, 1:50 am)55% (Oct 16, 1:50 am)29.21 "Hg (Oct 11, 4:20 pm)
Average46 °F83%29.72 "Hg
* Reported Oct 5 9:20 am — Oct 20 9:50 am, Molde. Weather by CustomWeather, © 2017

Note: Actual official high and low records may vary slightly from our data, if they occured in-between our weather recording intervals... More about our weather records

Advertising

Molde Weather History for the Previous 24 Hours

Scroll right to see more
 ConditionsComfort  
Time TempWeatherWind HumidityBarometerVisibility
9:50 am
Fri, Oct 20
43 °FSunny.17 mph66%29.86 "Hg10 mi
9:20 am41 °FSunny.12 mph70%29.86 "Hg10 mi
8:50 am41 °FSunny.14 mph70%29.86 "Hg10 mi
8:20 am41 °FClear.14 mph70%29.86 "Hg10 mi
7:50 am41 °FClear.12 mph66%29.86 "Hg10 mi
7:20 am41 °FClear.14 mph66%29.86 "Hg10 mi
6:50 am39 °FClear.9 mph65%29.89 "Hg10 mi
6:20 am39 °FPassing clouds.8 mph65%29.89 "HgN/A
5:50 am37 °FPassing clouds.10 mph70%29.89 "Hg10 mi
5:20 am37 °FChilly.8 mph75%29.89 "HgN/A
4:50 am36 °FChilly.9 mph81%29.89 "HgN/A
4:20 am37 °FPassing clouds.9 mph75%29.89 "HgN/A
3:50 am39 °FPassing clouds.8 mph70%29.92 "HgN/A
3:20 am39 °FPassing clouds.10 mph70%29.92 "HgN/A
2:50 am37 °FChilly.7 mph75%29.92 "HgN/A
2:20 am37 °FPassing clouds.8 mph75%29.92 "HgN/A
1:50 am39 °FPassing clouds.8 mph70%29.92 "HgN/A
1:20 am39 °FPassing clouds.8 mph75%29.95 "HgN/A
12:50 am37 °FChilly.12 mph75%29.95 "HgN/A
12:20 am39 °FClear.8 mph75%29.95 "Hg10 mi
11:50 pm
Thu, Oct 19
39 °FClear.10 mph70%29.95 "Hg10 mi
11:20 pm39 °FClear.10 mph75%29.95 "Hg10 mi
10:20 pm39 °FClear.10 mph75%29.95 "Hg10 mi
9:50 pm37 °FClear.9 mph81%29.98 "Hg10 mi
9:20 pm37 °FClear.10 mph75%29.98 "Hg10 mi
8:50 pm39 °FClear.10 mph75%29.98 "Hg10 mi
8:20 pm39 °FClear.10 mph81%29.98 "Hg10 mi
7:20 pm39 °FClear.10 mph81%30.01 "Hg10 mi
6:50 pm39 °FClear.9 mph87%30.01 "Hg10 mi
6:20 pm41 °FClear.10 mph81%30.01 "Hg10 mi
5:50 pm43 °FSunny.9 mph81%30.01 "Hg10 mi
5:20 pm43 °FSunny.3 mph81%30.01 "Hg10 mi
4:50 pm45 °FSunny.5 mph76%30.01 "Hg10 mi
4:20 pm46 °FSunny.No wind71%30.01 "Hg10 mi
3:50 pm48 °FSunny.3 mph62%30.01 "Hg10 mi
3:20 pm46 °FPassing clouds.3 mph71%30.01 "HgN/A
2:50 pm46 °FPassing clouds.5 mph71%30.04 "HgN/A
2:20 pm46 °FSunny.6 mph71%30.04 "Hg10 mi
1:50 pm46 °FSunny.8 mph76%30.04 "Hg10 mi
1:20 pm46 °FSunny.8 mph71%30.04 "Hg10 mi
12:50 pm45 °FSunny.9 mph76%30.04 "Hg10 mi
12:20 pm45 °FSunny.8 mph76%30.04 "Hg10 mi
11:50 am43 °FSunny.10 mph81%30.07 "Hg10 mi
11:20 am43 °FPassing clouds.8 mph81%30.07 "HgN/A
Weather by CustomWeather, © 2017

See weather overview